When you browse on this site, cookies collect data to enhance your experience and personalize the content and advertising you see.
Visit our Privacy Policy to learn more. By continuing to use the site, you agree to this use of cookies and data.
  • In Spain
  • List of Countries
  • For 7 days
  • Water Temperature
  • Weather Map
  • Weather Widgets
  • user-avatar
    Login

    Hourly Weather Shkoder

    Today, 24 August, Saturday

    Time Temperature Precipitation Wind Pressure Humidity
    00:00 +26°C° 0.4 mm 2 mps 742 mmHg 60%
    01:00 +25°C° 0.4 mm 2 mps 742 mmHg 65%
    02:00 +24°C° 0.5 mm 2 mps 742 mmHg 66%
    03:00 +24°C° 0.5 mm 2 mps 742 mmHg 68%
    04:00 +24°C° 0.5 mm 2 mps 742 mmHg 69%
    05:00 +24°C° 0.6 mm 2 mps 742 mmHg 68%
    06:00 +25°C° 0.6 mm 2 mps 742 mmHg 66%
    07:00 +26°C° 0.6 mm 2 mps 742 mmHg 65%
    08:00 +28°C° 0.1 mm 2 mps 742 mmHg 56%
    09:00 +31°C° 0.1 mm 2 mps 742 mmHg 47%
    10:00 +34°C° 0.1 mm 2 mps 742 mmHg 38%
    11:00 +35°C° 0 mm 2 mps 742 mmHg 34%
    12:00 +36°C° 0 mm 2 mps 741 mmHg 31%
    13:00 +37°C° 0 mm 2 mps 741 mmHg 28%
    14:00 +34°C° 0.4 mm 3 mps 741 mmHg 39%
    15:00 +30°C° 0.4 mm 3 mps 741 mmHg 49%
    16:00 +27°C° 0.4 mm 3 mps 740 mmHg 60%
    17:00 +27°C° 0.2 mm 3 mps 741 mmHg 62%
    18:00 +26°C° 0.2 mm 3 mps 741 mmHg 64%
    19:00 +25°C° 0.2 mm 3 mps 741 mmHg 65%
    20:00 +25°C° 0 mm 3 mps 741 mmHg 66%
    21:00 +24°C° 0 mm 2 mps 741 mmHg 67%
    22:00 +24°C° 0 mm 2 mps 741 mmHg 68%
    23:00 +24°C° 0 mm 2 mps 741 mmHg 68%

    Tomorrow, 25 August, Sunday

    Time Temperature Precipitation Wind Pressure Humidity
    00:00 +23°C° 0 mm 2 mps 741 mmHg 68%
    01:00 +23°C° 0 mm 2 mps 741 mmHg 68%
    02:00 +23°C° 0.2 mm 2 mps 741 mmHg 69%
    03:00 +23°C° 0.2 mm 2 mps 740 mmHg 70%
    04:00 +23°C° 0.2 mm 2 mps 740 mmHg 71%
    05:00 +24°C° 0.1 mm 2 mps 740 mmHg 68%
    06:00 +25°C° 0.1 mm 2 mps 740 mmHg 64%
    07:00 +27°C° 0.1 mm 2 mps 740 mmHg 61%
    08:00 +29°C° 0 mm 2 mps 741 mmHg 52%
    09:00 +32°C° 0 mm 1 mps 741 mmHg 43%
    10:00 +34°C° 0 mm 1 mps 741 mmHg 34%
    11:00 +36°C° 0 mm 2 mps 740 mmHg 32%
    12:00 +37°C° 0 mm 2 mps 740 mmHg 30%
    13:00 +37°C° 0 mm 3 mps 740 mmHg 28%
    14:00 +36°C° 0.1 mm 3 mps 740 mmHg 30%
    15:00 +36°C° 0.1 mm 3 mps 740 mmHg 32%
    16:00 +35°C° 0.1 mm 3 mps 739 mmHg 34%
    17:00 +31°C° 0.2 mm 3 mps 740 mmHg 43%
    18:00 +29°C° 0.2 mm 3 mps 740 mmHg 51%
    19:00 +26°C° 0.2 mm 3 mps 741 mmHg 60%
    20:00 +25°C° 0.2 mm 3 mps 741 mmHg 65%
    21:00 +24°C° 0.2 mm 3 mps 741 mmHg 70%
    22:00 +22°C° 0.2 mm 3 mps 741 mmHg 75%
    23:00 +22°C° 0 mm 3 mps 741 mmHg 73%

    Day after tomorrow, 26 August, Monday

    Time Temperature Precipitation Wind Pressure Humidity
    00:00 +23°C° 0 mm 2 mps 740 mmHg 72%
    01:00 +23°C° 0 mm 2 mps 740 mmHg 70%
    02:00 +23°C° 0 mm 2 mps 740 mmHg 69%
    03:00 +23°C° 0 mm 2 mps 740 mmHg 69%
    04:00 +23°C° 0 mm 2 mps 740 mmHg 68%
    05:00 +24°C° 0 mm 2 mps 740 mmHg 64%
    06:00 +25°C° 0 mm 2 mps 740 mmHg 61%
    07:00 +27°C° 0 mm 2 mps 740 mmHg 57%
    08:00 +29°C° 0 mm 2 mps 740 mmHg 50%
    09:00 +31°C° 0 mm 2 mps 741 mmHg 42%
    10:00 +34°C° 0 mm 1 mps 741 mmHg 35%
    11:00 +35°C° 0 mm 2 mps 741 mmHg 34%
    12:00 +36°C° 0 mm 2 mps 740 mmHg 32%
    13:00 +36°C° 0 mm 3 mps 740 mmHg 31%
    14:00 +34°C° 0.4 mm 3 mps 740 mmHg 38%
    15:00 +33°C° 0.4 mm 3 mps 740 mmHg 45%
    16:00 +30°C° 0.4 mm 3 mps 740 mmHg 52%
    17:00 +28°C° 0.3 mm 3 mps 741 mmHg 58%
    18:00 +26°C° 0.3 mm 3 mps 741 mmHg 63%
    19:00 +25°C° 0.3 mm 3 mps 741 mmHg 69%
    20:00 +24°C° 0.1 mm 3 mps 741 mmHg 71%
    21:00 +22°C° 0.1 mm 3 mps 741 mmHg 73%
    22:00 +22°C° 0.1 mm 3 mps 741 mmHg 74%
    23:00 +22°C° 0 mm 3 mps 741 mmHg 73%

    27 August, Tuesday

    Time Temperature Precipitation Wind Pressure Humidity
    00:00 +21°C° 0 mm 2 mps 741 mmHg 72%
    01:00 +21°C° 0 mm 2 mps 741 mmHg 71%
    02:00 +21°C° 0 mm 2 mps 741 mmHg 70%
    03:00 +21°C° 0 mm 2 mps 741 mmHg 70%
    04:00 +21°C° 0 mm 2 mps 740 mmHg 69%
    05:00 +23°C° 0 mm 2 mps 741 mmHg 65%
    06:00 +25°C° 0 mm 2 mps 741 mmHg 61%
    07:00 +26°C° 0 mm 2 mps 741 mmHg 57%
    08:00 +29°C° 0 mm 1 mps 741 mmHg 50%
    09:00 +31°C° 0 mm 1 mps 741 mmHg 42%
    10:00 +33°C° 0 mm 1 mps 741 mmHg 34%
    11:00 +35°C° 0 mm 2 mps 741 mmHg 32%
    12:00 +36°C° 0 mm 2 mps 741 mmHg 30%
    13:00 +36°C° 0 mm 3 mps 741 mmHg 28%
    14:00 +35°C° 0 mm 3 mps 741 mmHg 31%
    15:00 +34°C° 0 mm 3 mps 741 mmHg 34%
    16:00 +34°C° 0 mm 3 mps 741 mmHg 37%
    17:00 +31°C° 0 mm 3 mps 741 mmHg 42%
    18:00 +29°C° 0 mm 2 mps 741 mmHg 47%
    19:00 +27°C° 0 mm 2 mps 741 mmHg 52%
    20:00 +26°C° 0 mm 2 mps 741 mmHg 55%
    21:00 +26°C° 0 mm 2 mps 742 mmHg 57%
    22:00 +25°C° 0 mm 1 mps 742 mmHg 60%
    23:00 +25°C° 0 mm 1 mps 741 mmHg 61%

    28 August, Wednesday

    Time Temperature Precipitation Wind Pressure Humidity
    00:00 +24°C° 0 mm 1 mps 741 mmHg 61%
    01:00 +24°C° 0 mm 1 mps 741 mmHg 61%
    02:00 +24°C° 0 mm 2 mps 741 mmHg 62%
    03:00 +23°C° 0 mm 2 mps 741 mmHg 62%
    04:00 +23°C° 0 mm 2 mps 741 mmHg 63%
    05:00 +24°C° 0 mm 2 mps 741 mmHg 59%
    06:00 +26°C° 0 mm 1 mps 741 mmHg 55%
    07:00 +27°C° 0 mm 1 mps 741 mmHg 51%
    08:00 +29°C° 0 mm 1 mps 741 mmHg 44%
    09:00 +31°C° 0 mm 2 mps 741 mmHg 38%
    10:00 +34°C° 0 mm 2 mps 741 mmHg 31%
    11:00 +35°C° 0 mm 2 mps 740 mmHg 29%
    12:00 +36°C° 0 mm 2 mps 740 mmHg 28%
    13:00 +36°C° 0 mm 3 mps 740 mmHg 27%
    14:00 +36°C° 0 mm 3 mps 739 mmHg 28%
    15:00 +35°C° 0 mm 3 mps 739 mmHg 29%
    16:00 +35°C° 0 mm 2 mps 739 mmHg 30%
    17:00 +32°C° 0 mm 2 mps 739 mmHg 35%
    18:00 +30°C° 0 mm 1 mps 739 mmHg 41%
    19:00 +28°C° 0 mm 1 mps 739 mmHg 46%
    20:00 +27°C° 0 mm 1 mps 739 mmHg 48%
    21:00 +26°C° 0 mm 1 mps 739 mmHg 49%
    22:00 +25°C° 0 mm 1 mps 739 mmHg 51%
    23:00 +25°C° 0 mm 1 mps 739 mmHg 50%

    29 August, Thursday

    Time Temperature Precipitation Wind Pressure Humidity
    00:00 +25°C° 0 mm 1 mps 739 mmHg 48%
    01:00 +24°C° 0 mm 1 mps 739 mmHg 47%
    02:00 +24°C° 0 mm 1 mps 738 mmHg 46%
    03:00 +24°C° 0 mm 1 mps 738 mmHg 46%
    04:00 +23°C° 0 mm 1 mps 738 mmHg 46%
    05:00 +25°C° 0 mm 1 mps 738 mmHg 42%
    06:00 +26°C° 0 mm 1 mps 738 mmHg 39%
    07:00 +28°C° 0 mm 1 mps 738 mmHg 35%
    08:00 +30°C° 0 mm 1 mps 738 mmHg 32%
    09:00 +32°C° 0 mm 1 mps 738 mmHg 28%
    10:00 +34°C° 0 mm 1 mps 738 mmHg 25%
    11:00 +35°C° 0 mm 2 mps 738 mmHg 25%
    12:00 +35°C° 0 mm 2 mps 738 mmHg 26%
    13:00 +36°C° 0 mm 3 mps 737 mmHg 26%
    14:00 +35°C° 0 mm 3 mps 737 mmHg 29%
    15:00 +34°C° 0 mm 3 mps 737 mmHg 32%
    16:00 +33°C° 0 mm 3 mps 737 mmHg 34%
    17:00 +30°C° 0 mm 2 mps 737 mmHg 42%
    18:00 +28°C° 0 mm 1 mps 737 mmHg 49%
    19:00 +26°C° 0 mm 1 mps 737 mmHg 57%
    20:00 +25°C° 0 mm 1 mps 737 mmHg 58%
    21:00 +25°C° 0 mm 1 mps 738 mmHg 59%
    22:00 +24°C° 0 mm 1 mps 738 mmHg 60%
    23:00 +24°C° 0 mm 1 mps 737 mmHg 59%
    Show more